Regional Weather Roundup
Issued by NWS Wakefield, VA

Home | Current Version | Previous Version | Text Only | Print | Product List | Glossary Off
Versions: 1 2 3 4 5 6 7 8 9 10 11 12 13 14 15 16 17 18 19 20 21 22 23 24 25 26 27 28 29 30 31 32 33 34 35 36 37 38 39 40 41 42 43 44 45 46 47 48 49 50

000
ASUS41 KAKQ 311810
RWRAKQ

REGIONAL WEATHER ROUNDUP
NATIONAL WEATHER SERVICE WAKEFIELD VA
200 PM EDT SUN AUG 31 2014

Note: "fair" indicates few or no clouds below 12,000 feet with no
significant weather and/or obstructions to visibility. * = Denotes
station may not report precipitation (e.g., rain,snow,etc.),
thunder or fog.

VAZ042-051-052>054-056-311900-
NORTHERN VIRGINIA

CITY           SKY/WX    TMP DP  RH WIND       PRES   REMARKS
WASH NATIONAL  MOSUNNY   94  69  44 SW17G24   30.04F HX  99
DULLES         PTSUNNY   88  69  53 SW12G23   30.05F
FORT BELVOIR   SUNNY     91  71  52 S10G17    30.05F HX  96
QUANTICO       MOSUNNY   90  69  50 SW12      30.05F
FREDERICKSBRG* MOSUNNY   92  71  49 SW10      30.05F HX  99
STAFFORD*      MOSUNNY   89  73  59 SW10      30.10S HX  96
WARRENTON      SUNNY     94  75  54 SW10G21   30.05F HX 105
CULPEPER*      PTSUNNY  N/A N/A N/A SW9G21    30.06S
MANASSAS*      MOSUNNY   90  70  51 SW8       30.05F HX  95
LEESBURG*      PTSUNNY   90  77  66 W5        30.06S HX 102
WINCHESTER     PTSUNNY   86  68  54 SW10G20   30.06F
$$

VAZ048-049-060>072-079>083-311900-
CENTRAL AND SOUTH CENTRAL VIRGINIA...AND NORTH CENTRAL NORTH CAROLINA

CITY           SKY/WX    TMP DP  RH WIND       PRES   REMARKS
RICHMOND       PTSUNNY   92  71  50 SW12      30.08F HX  98
CHESTERFIELD*  PTCLDY   N/A N/A N/A SW13      30.10F
PETERSBURG*    MOSUNNY   88  69  53 SW10      30.11S
HANOVER        PTSUNNY   89  70  53 SW6       30.09F
TAPPAHANNOCK*  MOSUNNY   91  68  46 S8        30.08S HX  95
CHARLOTTSVILLE PTSUNNY   88  72  58 S10G17    30.07F
ORANGE*        PTSUNNY   88  70  55 S12       30.08F
LOUISA*        MOSUNNY   90  72  55 S9        30.07F HX  96
FARMVILLE*       N/A     90  68  48 S14G21    30.07F
SOUTH HILL*    MOSUNNY   90  73  58 S8        30.17F HX  98
ROANOKE RAPIDS PTCLDY    88  70  55 SW8       30.12S
RALEIGH        MOSUNNY   88  70  55 SW10      30.14S
$$

VAZ088>098-311900-
SOUTHEAST VIRGINIA

CITY           SKY/WX    TMP DP  RH WIND       PRES   REMARKS
NORFOLK        SUNNY     91  66  43 S10       30.10F
VIRGINIA BEACH MOSUNNY   89  69  51 S8        30.10F
NORFOLK NAVAL  MOSUNNY   90  66  45 SW9       30.11F
WEST POINT*    MOSUNNY   92  67  44 S8        30.10S HX  95
NEWPORT NEWS   SUNNY     93  71  48 S10       30.09F HX 100
LANGLEY AFB    SUNNY     89  71  53 SW12      30.09F HX  95
FORT EUSTIS    SUNNY     90  68  49 S9        30.08F
WILLIAMSBURG*  SUNNY     93  72  49 S9G16     30.10S HX 100
FRANKLIN*      MOSUNNY   90  72  55 S7G17     30.11S HX  96
WAKEFIELD      SUNNY     89  70  53 SW10      30.10F
$$

VAZ020-022-025-037-045-311900-
WESTERN AND SOUTHWEST VIRGINIA

CITY           SKY/WX    TMP DP  RH WIND       PRES   REMARKS
STAUNTON*      PTSUNNY   89  65  45 SW9G20    30.11F
HOT SPRINGS VA MOSUNNY   76  61  57 W13G20    30.27S
LYNCHBURG      PTSUNNY   84  72  67 S10       30.13F
DANVILLE       MOSUNNY   89  71  55 SW13G20   30.12S HX  95
MARTINSVILLE   MOSUNNY   87  70  56 SW8       30.16F
ROANOKE        MOSUNNY   89  67  47 S5        30.13F
BLACKSBURG     SUNNY     86  70  58 SW8       30.19F
DUBLIN*        MOSUNNY   85  68  56 W7        30.19S
MARION*        MOSUNNY  N/A N/A N/A W12       30.24S
HILLSVILLE*    PTSUNNY   81  67  63 SW7       30.22F
RICHLANDS*     CLOUDY    81  68  64 W12       30.23S
WISE*          CLOUDY    73  64  73 W6        30.23F
ABINGDON*      CLOUDY    82  67  61 NW9       30.20F
$$

MDZ021>025-VAZ099-100-311900-
SOUTHERN MARYLAND AND THE DELMARVA PENINSULA

CITY           SKY/WX    TMP DP  RH WIND       PRES   REMARKS
PATUXENT RIVER PTSUNNY   90  70  51 S10G20    30.06F HX  95
BAY BRIDGE APT   N/A     88  70  55 S12       30.05S
LEONARDTOWN    PTSUNNY   90  68  48 SW9G17    30.08F
DOVER          MOSUNNY   92  72  52 S18G24    30.03F HX  99
GEORGETOWN     SUNNY     91  70  49 S18G24    30.06F HX  96
EASTON         MOSUNNY   91  72  52 SW13      30.09  HX  98
CAMBRIDGE      SUNNY     86  70  58 S8G16     30.06F
SALISBURY      SUNNY     92  67  43 S16       30.07F HX  95
OCEAN CITY     MOSUNNY   84  75  74 SW9G17    30.08F
WALLOPS ISLAND SUNNY     86  76  71 S17       30.10F HX  96
ACCOMACK*      SUNNY     88  72  58 S10G16    30.09F
$$

NCZ012>017-030>032-311900-
EASTERN NORTH CAROLINA

CITY           SKY/WX    TMP DP  RH WIND       PRES   REMARKS
ELIZABETH CITY MOSUNNY   87  72  60 S9        30.12F
AHOSKIE*       SUNNY     86  72  62 S5        30.12F
EDENTON*       MOSUNNY   87  71  58 SW8       30.13F
CURRITUCK*     MOSUNNY   87  69  54 S7        30.13S
KILL DEVIL HLS SUNNY     87  72  60 SE8       30.12F
MANTEO         SUNNY     85  74  68 S16       30.14F
CAPE HATTERAS  MOSUNNY   83  73  72 S6        30.16F
GOLDSBORO      SUNNY     88  74  63 VRB5      30.11F HX  97
WASHINGTON     SUNNY     87  71  58 S7        30.14S
GREENVILLE     MOSUNNY   90  72  55 SW10      30.14F HX  96
NEW BERN       PTSUNNY   91  71  51 S3        30.14F HX  97
WILMINGTON     MOSUNNY   87  74  64 SE10      30.14F HX  95
$$

VAZ048-311900-
ELSEWHERE

CITY           SKY/WX    TMP DP  RH WIND       PRES   REMARKS
HARRISBURG PA  CLOUDY    85  71  63 W8        30.02F
BALTIMORE      PTSUNNY   90  70  51 SW13G18   30.02F HX  95
ANNAPOLIS      MOSUNNY   87  72  60 S13       30.03F
ANDREWS AFB    SUNNY     91  71  51 SW15G23   30.05F HX  97
WILMINGTON DE  MOSUNNY   92  70  48 SW17G25   30.03F HX  97
PHILADELPHIA   PTSUNNY   91  70  49 SW20G28   30.02F HX  96
WILDWOOD NJ*   SUNNY     88  72  58 S13       30.07F
ATLANTIC CITY  PTSUNNY   87  74  64 S13G20    30.05F HX  95
HENDERSON NC   MOSUNNY   87  67  51 SW8       30.13F
GREENSBORO     PTSUNNY   88  70  55 SW9G20    30.13F
ROCKY MOUNT    MOSUNNY   89  71  55 SW8       30.13S HX  95
FAYETTEVILLE   MOSUNNY   93  69  45 SW9       30.12F HX  98
CHARLOTTE      PTSUNNY   87  71  58 VRB3      30.14F
$$

VAZ100-311900-
MARINE

STATION/POSITION TIME  TEMP    WIND        PRES    WAVE   SWELL
                       AIR SEA DIR/SP/G            HT/PER HT/PER
                 (UTC) (F)     (DEG/KT/KT) (MB)    (FT/S) (FT/S)
44066 TX TWR #4  1800   75 73  210/ 14/ 16 1018.7F   3/ 9   2/ 9
CAPE MAY NJ      1800   81 80  170/ 12/ 17 1017.5F
LEWES DE         1800   89 75  230/  6/ 12 1017.5F
15NM E FENWICK I 1800   76 74              1018.7F   3/ 9
OCEAN-CITY-INLET 1800   78 76  200/ 13/ 17 1018.6F
WACHAPREAGUE VA  1800   81 80  190/ 12/ 16 1019.4F
THOMAS POINT MD  1800   80 79  170/ 18/ 19 1018.1F
GOOSES REEF MD   1800   80     180/ 14/ 16 1018.3F
COVE POINT MD    1800   79     170/ 18/ 19 1017.8F
SOLOMONS ISLAND  1800      80                N/A
BISHOPS HEAD MD  1800   80 80  160/ 11/ 14 1018.2F
PINEY POINT MD   1800          220/  8/  8   N/A
POTOMAC MD       1800   84     210/  8/ 10 1017.8S
CAMBRIDGE MD     1800   86 78  200/ 10/ 16 1017.8S
LEWISETTA VA     1800   86 81  200/ 10/ 14 1017.9F
RAPPAHANNOCK LGT 1800          170/ 16/ 18 1019.4F
STINGRAY PT      1800   81     170/ 16/ 17   N/A
YORK RVR RNG VA  1800   83     170/  9/ 11 1018.5F
YORKTOWN VA      1800   87 80  180/  9/ 14 1018.6F
JAMESTOWN VA     1800   85     220/  6/ 10   N/A
DOMINION TERM VA 1800   83     230/  8/ 11 1019.5F
KIPTOPEKE VA     1800      83  180/ 12/ 14   N/A
CHES BAY BRIDGE  1800   85 78  180/  5/ 11 1019.0S
CAPE HENRY VA    1800   83     130/ 13/ 17 1018.3S
CHESAPEAKE LGHT  1700   78     160/ 16/ 17 1020.4F
WILLOUBY STN VA  1800   86     200/ 11/ 13 1018.3F
S CRANEY ISL VA  1800          200/  7/ 11 1019.2F
CAPE HENRY BUOY  1800      80                N/A     3/ 9   2/11
1ST LANDING BUOY 1800   82     130/ 10/ 14 1019.1S
CAPE CHARLES BUO 1800      79                N/A     3/10   2/10
OFFSHORE WE BUOY 1800      77                N/A     3/10   2/10
64NM E OF VA BCH 1800   78 78  170/ 10/ 12 1020.4F   3/10   3/10
DUCK PIER NC     1800   81 76  130/ 12/ 13 1019.7F
44056 DUCK FRF   1800                        N/A     2/10
OREGON INLET NC  1800   83 81  170/ 10/ 12 1021.0F
HATTERAS NC      1800   85 83  200/  4/  7 1021.9F
DIAMOND SHLS NC  1800   81     180/ 10/ 12 1021.3F   3/10   3/10
CAPE LOOKOUT NC  1700   82     160/  7/  7 1021.4F
$$



USA.gov is the U.S. government's official web portal to all federal, state and local government web resources and services.